SHLBYV-WX Weather Reports


time (UTC)temp
C
wind
direction
speed
KPH
gust
KPH
rain 1hr
cm
rain 24hr
cm
rain mn
cm
humidity
%
barometer
mb
20260509054551 7 168 11.3 0.0 0.00 0.00 0.00 55 977.5
20260509053106 7 159 11.3 0.0 0.00 0.00 0.00 60 977.0
20260509051549 7 163 11.3 0.0 0.00 0.00 0.00 60 977.0
20260509050122 7 158 9.7 0.0 0.00 0.00 0.00 60 977.0
20260509044550 7 155 8.0 0.0 0.00 0.00 0.00 52 977.9
20260509043106 7 166 9.7 0.0 0.00 0.00 0.00 52 976.7
20260509041550 8 165 9.7 0.0 0.00 0.00 0.00 52 976.8
20260509040127 8 165 9.7 0.0 0.00 0.00 0.00 52 976.8
20260509034550 8 174 9.7 0.0 0.00 0.00 0.00 49 977.7
20260509033105 8 180 9.7 0.0 0.00 0.00 0.00 49 978.4
20260509031550 8 174 9.7 0.0 0.00 0.00 0.00 49 978.4
20260509030123 8 172 9.7 0.0 0.00 0.00 0.00 49 978.4
20260509024549 9 174 9.7 0.0 0.00 0.00 0.00 33 978.4
20260509023108 9 167 9.7 0.0 0.00 0.00 0.00 35 978.6
20260509021550 10 188 9.7 0.0 0.00 0.00 0.00 35 978.6
20260509020119 10 204 6.4 0.0 0.00 0.00 0.00 35 978.6
20260509014548 11 222 3.2 0.0 0.00 0.00 0.00 40 978.3
20260509013103 11 243 3.2 0.0 0.00 0.00 0.00 40 978.3
20260509011549 11 282 4.8 0.0 0.00 0.00 0.00 40 978.3
20260509010116 11 289 6.4 0.0 0.00 0.00 0.00 40 978.3
20260509004547 12 295 6.4 0.0 0.00 0.00 0.00 36 977.9
20260509003107 12 278 6.4 0.0 0.00 0.00 0.00 34 979.2
20260509001548 13 283 6.4 0.0 0.00 0.00 0.00 34 979.2
20260509000128 13 285 6.4 0.0 0.00 0.00 0.00 34 979.2
20260508234549 14 278 9.7 0.0 0.00 0.00 0.00 28 978.6
20260508233109 15 273 11.3 0.0 0.00 0.00 0.00 23 979.1
20260508231551 15 268 11.3 0.0 0.00 0.00 0.00 23 979.1
20260508230115 15 268 12.9 0.0 0.00 0.00 0.00 23 979.1
20260508224550 15 270 12.9 0.0 0.00 0.00 0.00 24 979.2
20260508223109 15 280 14.5 0.0 0.00 0.00 0.00 23 980.1
20260508221552 15 280 16.1 0.0 0.00 0.00 0.00 23 980.1
20260508220116 15 281 16.1 0.0 0.00 0.00 0.00 23 980.1
20260508214551 16 281 16.1 0.0 0.00 0.00 0.00 23 980.7
20260508213108 16 277 17.7 0.0 0.00 0.00 0.00 24 980.0
20260508211551 16 261 16.1 0.0 0.00 0.00 0.00 24 980.0
20260508210120 16 256 17.7 0.0 0.00 0.00 0.00 24 980.0
20260508204551 16 253 17.7 0.0 0.00 0.00 0.00 26 980.4
20260508203109 16 251 17.7 0.0 0.00 0.00 0.00 24 979.9
20260508201551 16 249 16.1 0.0 0.00 0.00 0.00 24 980.0
20260508200117 16 248 16.1 0.0 0.00 0.00 0.00 24 980.0
20260508194552 16 244 16.1 0.0 0.00 0.00 0.00 21 980.2
20260508193106 16 238 16.1 0.0 0.00 0.00 0.00 21 980.2
20260508191550 16 253 16.1 0.0 0.00 0.00 0.00 21 980.2
20260508190114 16 257 16.1 0.0 0.00 0.00 0.00 21 980.2
20260508184551 16 247 16.1 0.0 0.00 0.00 0.00 29 980.8
20260508183110 16 235 12.9 0.0 0.00 0.00 0.00 30 980.4
20260508181551 16 234 14.5 0.0 0.00 0.00 0.00 30 980.3
20260508180121 16 239 14.5 0.0 0.00 0.00 0.00 30 980.3
20260508174551 15 242 16.1 0.0 0.00 0.00 0.00 34 981.4
20260508173110 15 247 16.1 0.0 0.00 0.00 0.00 34 981.4
20260508171551 15 243 16.1 0.0 0.00 0.00 0.00 34 981.4
20260508170116 15 241 16.1 0.0 0.00 0.00 0.00 34 981.4
20260508164551 15 238 14.5 0.0 0.00 0.00 0.00 37 981.5
20260508163109 14 228 14.5 0.0 0.00 0.00 0.00 37 981.8
20260508161551 13 222 12.9 0.0 0.00 0.00 0.00 37 981.8
20260508160121 13 223 11.3 0.0 0.00 0.00 0.00 37 981.8
20260508154551 13 222 9.7 0.0 0.00 0.00 0.00 47 982.7
20260508153111 12 200 9.7 0.0 0.00 0.00 0.00 51 981.8
20260508151551 12 195 9.7 0.0 0.00 0.00 0.00 51 981.8
20260508150121 11 197 8.0 0.0 0.00 0.00 0.00 51 981.8
20260508144551 11 191 6.4 0.0 0.00 0.00 0.00 64 981.9
20260508143109 11 190 8.0 0.0 0.00 0.00 0.00 56 982.0
20260508141552 10 185 8.0 0.0 0.00 0.00 0.00 56 982.0
20260508140129 10 180 8.0 0.0 0.00 0.00 0.00 59 981.8
20260508134551 10 172 6.4 0.0 0.00 0.00 0.00 68 981.7
20260508133106 8 174 9.7 0.0 0.00 0.00 0.00 68 981.7
20260508131551 7 176 9.7 0.0 0.00 0.00 0.00 68 981.7
20260508130125 7 173 8.0 0.0 0.00 0.00 0.00 68 981.7
20260508124551 6 178 8.0 0.0 0.00 0.00 0.00 83 981.0
20260508123110 5 182 8.0 0.0 0.00 0.00 0.00 84 981.7
20260508121551 5 177 6.4 0.0 0.00 0.00 0.00 84 981.7
20260508120136 3 167 3.2 0.0 0.00 0.00 0.00 84 981.7
20260508114551 3 164 4.8 0.0 0.00 0.00 0.00 86 981.0
20260508113112 2 166 4.8 0.0 0.00 0.00 0.00 82 981.6
20260508111551 2 158 6.4 0.0 0.00 0.00 0.00 82 981.7
20260508110117 2 165 8.0 0.0 0.00 0.00 0.00 82 981.7
20260508104553 2 166 8.0 0.0 0.00 0.00 0.00 82 980.7
20260508103111 2 161 8.0 0.0 0.00 0.00 0.00 81 981.8
20260508101554 2 162 6.4 0.0 0.00 0.00 0.00 81 981.8
20260508100117 2 150 4.8 0.0 0.00 0.00 0.00 81 981.8
20260508094552 2 141 4.8 0.0 0.00 0.00 0.00 83 981.1
20260508093107 2 132 3.2 0.0 0.00 0.00 0.00 82 981.7
20260508091553 2 148 4.8 0.0 0.00 0.00 0.00 82 981.7
20260508090122 3 150 4.8 0.0 0.00 0.00 0.00 82 981.7
20260508084553 3 155 4.8 0.0 0.00 0.00 0.00 81 981.3
20260508083111 3 161 6.4 0.0 0.00 0.00 0.00 82 981.1
20260508081553 3 185 6.4 0.0 0.00 0.00 0.00 82 981.1
20260508080123 3 177 6.4 0.0 0.00 0.00 0.00 82 981.1
20260508074553 3 177 4.8 0.0 0.00 0.00 0.00 82 981.9
20260508073112 3 180 4.8 0.0 0.00 0.00 0.00 82 981.9
20260508071552 3 194 6.4 0.0 0.00 0.00 0.00 82 982.0
20260508070123 4 193 6.4 0.0 0.00 0.00 0.00 82 982.0
20260508064552 4 191 4.8 0.0 0.00 0.00 0.00 82 981.5
20260508063108 4 175 8.0 0.0 0.00 0.00 0.00 82 982.0
20260508061551 4 183 6.4 0.0 0.00 0.00 0.00 82 982.0
20260508060138 5 188 4.8 0.0 0.00 0.00 0.00 82 982.0